Location: Newark
(46.7000°N, 60.6000°W)
Time: 08:06:36
(UTC+00:00)

Vanguard 3 - Pass Details

Date: 31 October 2020
Orbit: 508 x 3262 km, 33.3° (Epoch: 29 November)

Event Time Altitude Azimuth Distance (km) Brightness Sun altitude
Rises 13:59:54 0° 275° (W) 7,152 11.7 24.4°
Reaches altitude 10° 14:05:16 10° 268° (W) 6,201 11.5 24.9°
Maximum altitude 14:21:44 35° 213° (SSW) 4,089 11.4 26.1°
Drops below altitude 10° 14:34:45 10° 154° (SSE) 4,895 12.9 26.9°
Sets 14:38:25 0° 146° (SE) 5,545 12.6 27.1°
